Weather History for Shelby, NC

Change the Weather History Date:

Friday, June 14, 2013

  Actual Average (KHKY) Record (KHKY)
Temperature  
Mean Temperature 72 °F -  
Max Temperature 82 °F 83 °F 95 °F (1958)
Min Temperature 62 °F 62 °F 52 °F (1968)
Cooling Degree Days 7    
Growing Degree Days 22 (Base 50)    
Moisture  
Dew Point 53 °F    
Average Humidity 51    
Maximum Humidity 76    
Minimum Humidity 31    
Precipitation  
Precipitation 0.00 in - - ()
Sea Level Pressure  
Sea Level Pressure 29.93 in    
Wind  
Wind Speed 7 mph (NNW)    
Max Wind Speed 16 mph    
Max Gust Speed 23 mph    
Visibility 10 miles    
Events      
Averages and records for this station are not official NWS values.
T = Trace of Precipitation, MM = Missing Value Source: NWS Daily Summary

Daily Weather History Graph

Daily Weather History Graph

Search for Another Location

Airport:

Trip Planner

Search our weather history database for the weather conditions in past years. The results will help you decide how hot, cold, wet, or windy it might be!

Date:

Astronomy

Jun. 14, 2013 Rise Set
Actual Time 6:11 AM EDT 8:42 PM EDT
Civil Twilight 5:41 AM EDT 9:12 PM EDT
Nautical Twilight 5:04 AM EDT 9:49 PM EDT
Astronomical Twilight 4:23 AM EDT 10:29 PM EDT
Moon 11:34 AM EDT (6/14) No Moon Set
Length of Visible Light 15h 30m
Length of Day
14h 31m
Waxing Crescent, 30% of the Moon is Illuminated
Jun 14
Waxing Crescent
Jun 16
First Quarter
Jun 23
Full
Jun 30
Last Quarter
Jul 8
New

Hourly Weather History & Observations

Time (EDT) Temp. Dew Point Humidity Pressure Visibility Wind Dir Wind Speed Gust Speed Precip Events Conditions
12:15 AM 74.3 °F 61.9 °F 65% 29.81 in 10.0 mi NW 6.9 mph - N/A   Clear
12:35 AM 72.5 °F 61.3 °F 68% 29.81 in 10.0 mi WNW 4.6 mph - N/A   Clear
12:55 AM 70.9 °F 61.7 °F 73% 29.81 in 10.0 mi WNW 4.6 mph - N/A   Clear
1:15 AM 70.2 °F 61.7 °F 74% 29.83 in 10.0 mi NW 5.8 mph - N/A   Clear
1:35 AM 72.9 °F 61.3 °F 67% 29.83 in 10.0 mi NNW 9.2 mph - N/A   Clear
1:55 AM 72.5 °F 61.0 °F 67% 29.84 in 10.0 mi North 5.8 mph - N/A   Clear
2:15 AM 71.2 °F 59.4 °F 66% 29.84 in 10.0 mi North 9.2 mph - N/A   Clear
2:35 AM 71.1 °F 55.6 °F 58% 29.84 in 10.0 mi North 9.2 mph - N/A   Clear
2:55 AM 70.2 °F 53.4 °F 55% 29.84 in 10.0 mi North 8.1 mph - N/A   Clear
3:15 AM 68.9 °F 52.5 °F 56% 29.84 in 10.0 mi North 4.6 mph - N/A   Clear
3:35 AM 68.9 °F 51.4 °F 54% 29.85 in 10.0 mi North 8.1 mph - N/A   Clear
3:55 AM 68.9 °F 51.3 °F 53% 29.85 in 10.0 mi North 5.8 mph - N/A   Clear
4:15 AM 67.8 °F 51.6 °F 56% 29.85 in 10.0 mi NNW 8.1 mph - N/A   Clear
4:35 AM 67.8 °F 52.0 °F 57% 29.85 in 10.0 mi NW 6.9 mph - N/A   Clear
4:55 AM 65.8 °F 52.7 °F 62% 29.86 in 10.0 mi Calm Calm - N/A   Clear
5:15 AM 65.5 °F 52.7 °F 63% 29.87 in 10.0 mi Calm Calm - N/A   Clear
5:35 AM 67.1 °F 52.9 °F 60% 29.87 in 10.0 mi SSW 4.6 mph - N/A   Clear
5:55 AM 65.1 °F 53.4 °F 66% 29.88 in 10.0 mi West 4.6 mph - N/A   Clear
6:15 AM 63.9 °F 53.6 °F 69% 29.88 in 10.0 mi WNW 3.5 mph - N/A   Clear
6:35 AM 62.6 °F 54.1 °F 74% 29.89 in 10.0 mi WNW 4.6 mph - N/A   Clear
6:55 AM 63.5 °F 55.2 °F 74% 29.89 in 10.0 mi WNW 4.6 mph - N/A   Clear
7:15 AM 65.3 °F 55.6 °F 71% 29.90 in 10.0 mi WNW 4.6 mph - N/A   Clear
7:35 AM 66.4 °F 55.9 °F 69% 29.91 in 10.0 mi WNW 6.9 mph - N/A   Clear
7:55 AM 68.0 °F 55.8 °F 65% 29.92 in 10.0 mi WNW 5.8 mph - N/A   Clear
8:15 AM 68.9 °F 56.5 °F 65% 29.92 in 10.0 mi NW 5.8 mph - N/A   Clear
8:35 AM 70.3 °F 55.9 °F 60% 29.92 in 10.0 mi WNW 9.2 mph - N/A   Clear
8:55 AM 71.2 °F 55.4 °F 57% 29.92 in 10.0 mi NW 8.1 mph - N/A   Clear
9:15 AM 72.5 °F 55.8 °F 56% 29.93 in 10.0 mi NNW 6.9 mph - N/A   Clear
9:35 AM 74.3 °F 54.9 °F 51% 29.93 in 10.0 mi NNW 9.2 mph 18.4 mph N/A   Clear
9:55 AM 74.3 °F 54.5 °F 50% 29.93 in 10.0 mi NNW 9.2 mph - N/A   Clear
10:15 AM 76.1 °F 53.1 °F 45% 29.94 in 10.0 mi NW 12.7 mph 18.4 mph N/A   Clear
10:35 AM 76.1 °F 51.4 °F 42% 29.93 in 10.0 mi NNW 12.7 mph 20.7 mph N/A   Clear
10:55 AM 77.0 °F 53.2 °F 44% 29.94 in 10.0 mi NNW 11.5 mph - N/A   Clear
11:15 AM 77.4 °F 52.3 °F 42% 29.94 in 10.0 mi NW 13.8 mph 18.4 mph N/A   Clear
11:35 AM 77.4 °F 53.1 °F 43% 29.95 in 10.0 mi NNW 11.5 mph 17.3 mph N/A   Clear
11:55 AM 77.9 °F 52.7 °F 41% 29.94 in 10.0 mi NNW 8.1 mph 19.6 mph N/A   Clear
12:15 PM 78.8 °F 53.4 °F 41% 29.95 in 10.0 mi North 8.1 mph - N/A   Clear
12:35 PM 79.5 °F 52.3 °F 39% 29.95 in 10.0 mi NNW 11.5 mph 18.4 mph N/A   Clear
12:55 PM 79.9 °F 51.8 °F 38% 29.94 in 10.0 mi North 11.5 mph 17.3 mph N/A   Clear
1:15 PM 79.9 °F 50.2 °F 35% 29.95 in 10.0 mi North 10.4 mph 19.6 mph N/A   Clear
1:35 PM 80.6 °F 52.0 °F 37% 29.95 in 10.0 mi North 11.5 mph - N/A   Clear
1:55 PM 80.8 °F 50.9 °F 35% 29.95 in 10.0 mi North 9.2 mph 17.3 mph N/A   Clear
2:15 PM 81.3 °F 50.0 °F 33% 29.95 in 10.0 mi NNW 11.5 mph 17.3 mph N/A   Clear
2:35 PM 81.7 °F 49.1 °F 32% 29.95 in 10.0 mi NNE 11.5 mph 19.6 mph N/A   Clear
2:55 PM 81.9 °F 50.2 °F 33% 29.95 in 10.0 mi North 16.1 mph 23.0 mph N/A   Scattered Clouds
3:15 PM 81.3 °F 49.6 °F 33% 29.95 in 10.0 mi North 11.5 mph 17.3 mph N/A   Scattered Clouds
3:35 PM 82.4 °F 49.1 °F 31% 29.95 in 10.0 mi NNW 12.7 mph 16.1 mph N/A   Scattered Clouds
3:55 PM 82.6 °F 50.2 °F 32% 29.95 in 10.0 mi North 9.2 mph 17.3 mph N/A   Scattered Clouds
4:15 PM 82.0 °F 49.6 °F 32% 29.95 in 10.0 mi North 12.7 mph 17.3 mph N/A   Clear
4:35 PM 82.8 °F 49.8 °F 32% 29.95 in 10.0 mi North 12.7 mph 18.4 mph N/A   Scattered Clouds
4:55 PM 81.5 °F 49.3 °F 32% 29.95 in 10.0 mi NNE 12.7 mph - N/A   Scattered Clouds
5:15 PM 82.0 °F 49.5 °F 32% 29.95 in 10.0 mi North 11.5 mph 18.4 mph N/A   Scattered Clouds
5:35 PM 81.3 °F 48.9 °F 32% 29.95 in 10.0 mi North 9.2 mph - N/A   Scattered Clouds
5:55 PM 81.5 °F 49.8 °F 33% 29.95 in 10.0 mi NNE 11.5 mph 17.3 mph N/A   Clear
6:15 PM 81.3 °F 48.9 °F 32% 29.95 in 10.0 mi North 12.7 mph - N/A   Clear
6:35 PM 81.0 °F 49.5 °F 33% 29.96 in 10.0 mi North 11.5 mph - N/A   Clear
6:55 PM 80.8 °F 49.6 °F 34% 29.96 in 10.0 mi North 6.9 mph - N/A   Clear
7:15 PM 80.1 °F 50.0 °F 35% 29.97 in 10.0 mi North 5.8 mph - N/A   Clear
7:35 PM 79.3 °F 50.2 °F 36% 29.97 in 10.0 mi North 4.6 mph - N/A   Clear
7:55 PM 78.1 °F 51.4 °F 39% 29.98 in 10.0 mi North 5.8 mph - N/A   Clear
8:15 PM 77.0 °F 52.9 °F 43% 29.98 in 10.0 mi North 3.5 mph - N/A   Clear
8:35 PM 76.1 °F 52.9 °F 44% 29.99 in 10.0 mi North 3.5 mph - N/A   Clear
8:55 PM 74.1 °F 54.0 °F 49% 29.99 in 10.0 mi NNE 3.5 mph - N/A   Clear
9:15 PM 74.3 °F 53.6 °F 48% 30.00 in 10.0 mi Calm Calm - N/A   Clear
9:35 PM 73.4 °F 53.8 °F 50% 30.00 in 10.0 mi Calm Calm - N/A   Clear
9:55 PM 72.5 °F 53.6 °F 51% 30.01 in 10.0 mi Calm Calm - N/A   Clear
10:15 PM 70.0 °F 55.9 °F 61% 30.03 in 10.0 mi Calm Calm - N/A   Clear
10:35 PM 68.0 °F 56.8 °F 67% 30.04 in 10.0 mi Calm Calm - N/A   Clear
10:55 PM 68.0 °F 55.8 °F 65% 30.04 in 10.0 mi North 3.5 mph - N/A   Clear
11:15 PM 65.8 °F 55.8 °F 70% 30.05 in 10.0 mi North 4.6 mph - N/A   Clear
11:35 PM 65.3 °F 56.7 °F 74% 30.05 in 10.0 mi North 3.5 mph - N/A   Clear
11:55 PM 64.4 °F 56.8 °F 76% 30.06 in 10.0 mi Calm Calm - N/A   Clear